User: anonymous   Login
Location: Unspecified
(0.0000°N, 0.0000°E)
Time: 19:11:59
(UTC+00:00)
Language:

APRIZESAT 10 - Orbit

View from above orbital plane
View from above orbital plane
View from above satellite
View from above satellite

Ground track
Ground track

The orbit data is extracted from the following two-line orbital elements,

1 40019U 14033K   18111.52218419  .00000068  00000-0  19794-4 0  9997
2 40019  97.7938 334.0551 0085654  62.4174 298.5698 14.66933735205429
Epoch (UTC): 21 April 2018 12:31:56
Eccentricity: 0.0085654
inclination: 97.7938°
perigee height: 610 km
apogee height: 731 km
right ascension of ascending node: 334.0551°
argument of perigee: 62.4174°
revolutions per day: 14.66933735
mean anomaly at epoch: 298.5698°
orbit number at epoch: 20542

The dashed part of the orbit path shows where the satellite is in the earth's shadow,  

DLR